Minneapolis Flying Cloud, MN

10:16 AM CST on December 12, 2019 (GMT -0600)
Flying Cloud

Weather History for KFCM - November, 2019

Change the Weather History Date:

Tuesday, November 19, 2019

  Actual Average Record
Temperature  
Mean Temperature 39 °F -  
Max Temperature 43 °F 39 °F 60 °F (2012)
Min Temperature 35 °F 25 °F 15 °F (2017)
Degree Days  
Heating Degree Days 26    
Moisture  
Dew Point 35 °F    
Average Humidity 89    
Maximum Humidity 100    
Minimum Humidity 79    
Precipitation  
Precipitation 0.09 in - - ()
Sea Level Pressure  
Sea Level Pressure 29.79 in    
Wind  
Wind Speed 3 mph (WSW)    
Max Wind Speed 8 mph    
Max Gust Speed -    
Visibility 6 miles    
Events Fog , Rain    
Averages and records for this station are not official NWS values.
T = Trace of Precipitation, MM = Missing Value Source: NWS Daily Summary

Daily Weather History Graph

Daily Weather History Graph

Search for Another Location

Airport or City:

Astronomy

Nov. 19, 2019 Rise Set
Actual Time 7:16 AM CST 4:41 PM CST
Civil Twilight 6:44 AM CST 5:13 PM CST
Nautical Twilight 6:08 AM CST 5:49 PM CST
Astronomical Twilight 5:33 AM CST 6:24 PM CST
Moon 11:41 PM CST (11/19) 1:25 PM CST (11/19)
Length of Visible Light 10h 29m
Length of Day
9h 25m
Waning Gibbous, 51% of the Moon is Illuminated
Nov 19
Waning Gibbous
Nov 19
Last Quarter
Nov 26
New
Dec 4
First Quarter
Dec 11
Full

Hourly Weather History & Observations

Time (CST) Temp. Windchill Dew Point Humidity Pressure Visibility Wind Dir Wind Speed Gust Speed Precip Events Conditions
12:53 AM 35.1 °F - 33.1 °F 92% 29.70 in 3.0 mi Calm Calm - 0.07 in Rain Light Rain
1:17 AM 35.1 °F 30.1 °F 32.0 °F 89% 29.66 in 4.0 mi ESE 5.8 mph - 0.00 in Rain Light Rain
1:45 AM 35.1 °F 32.2 °F 34.0 °F 96% 29.66 in 3.0 mi SSE 3.5 mph - 0.02 in Rain Light Rain
1:53 AM 35.1 °F 31.0 °F 33.1 °F 92% 29.69 in 3.0 mi SSE 4.6 mph - 0.02 in   Overcast
2:04 AM 35.1 °F - 34.0 °F 96% 29.67 in 2.5 mi Calm Calm - N/A   Overcast
2:53 AM 35.1 °F - 32.0 °F 89% 29.69 in 3.0 mi Calm Calm - N/A   Overcast
3:02 AM 35.1 °F - 34.0 °F 96% 29.67 in 2.5 mi Calm Calm - N/A   Overcast
3:10 AM 35.1 °F - 34.0 °F 96% 29.67 in 3.0 mi Calm Calm - N/A   Overcast
3:53 AM 35.1 °F 31.0 °F 33.1 °F 92% 29.70 in 2.5 mi SSW 4.6 mph - N/A   Overcast
4:42 AM 36.0 °F 33.3 °F 34.0 °F 93% 29.68 in 1.5 mi SW 3.5 mph - N/A   Overcast
4:53 AM 36.0 °F 33.3 °F 35.1 °F 97% 29.70 in 1.5 mi WSW 3.5 mph - N/A   Overcast
5:53 AM 36.0 °F 33.3 °F 35.1 °F 97% 29.70 in 0.5 mi SSW 3.5 mph - N/A Fog Fog
6:31 AM 36.0 °F - 36.0 °F 100% 29.69 in 0.2 mi Calm Calm - N/A Fog Fog
6:53 AM 36.0 °F - 36.0 °F 100% 29.73 in 0.2 mi Calm Calm - N/A Fog Fog
7:53 AM 37.0 °F 34.5 °F 35.1 °F 93% 29.75 in 0.2 mi WSW 3.5 mph - N/A Fog Fog
8:17 AM 37.0 °F 34.5 °F 36.0 °F 96% 29.73 in 1.0 mi WSW 3.5 mph - N/A   Overcast
8:41 AM 37.0 °F 33.3 °F 36.0 °F 96% 29.74 in 2.5 mi West 4.6 mph - N/A   Overcast
8:44 AM 37.0 °F 33.3 °F 36.0 °F 96% 29.74 in 3.0 mi West 4.6 mph - N/A   Overcast
8:53 AM 37.0 °F 34.5 °F 36.0 °F 96% 29.77 in 4.0 mi West 3.5 mph - N/A   Overcast
9:53 AM 37.9 °F 35.5 °F 36.0 °F 93% 29.79 in 10.0 mi West 3.5 mph - N/A   Overcast
10:53 AM 39.0 °F 35.7 °F 36.0 °F 89% 29.81 in 10.0 mi WSW 4.6 mph - N/A   Overcast
11:53 AM 39.9 °F 35.8 °F 36.0 °F 86% 29.81 in 10.0 mi West 5.8 mph - N/A   Overcast
12:22 PM 41.0 °F 36.4 °F 36.0 °F 82% 29.80 in 10.0 mi WNW 6.9 mph - N/A   Overcast
1:53 PM 42.1 °F 39.2 °F 36.0 °F 79% 29.84 in 10.0 mi West 4.6 mph - N/A   Overcast
2:33 PM 42.1 °F 40.2 °F 37.0 °F 82% 29.83 in 10.0 mi WSW 3.5 mph - N/A   Overcast
2:53 PM 43.0 °F 40.3 °F 37.0 °F 80% 29.86 in 10.0 mi West 4.6 mph - N/A   Overcast
3:43 PM 43.0 °F 40.3 °F 37.0 °F 80% 29.84 in 10.0 mi WSW 4.6 mph - N/A   Overcast
3:53 PM 43.0 °F 40.3 °F 37.0 °F 80% 29.88 in 10.0 mi WSW 4.6 mph - N/A   Overcast
4:44 PM 42.1 °F - 37.0 °F 82% 29.85 in 10.0 mi Calm Calm - N/A   Overcast
4:53 PM 42.1 °F - 37.0 °F 82% 29.88 in 10.0 mi Calm Calm - N/A   Overcast
5:53 PM 42.1 °F 38.4 °F 36.0 °F 79% 29.90 in 10.0 mi NW 5.8 mph - N/A   Overcast
6:53 PM 41.0 °F 35.8 °F 35.1 °F 79% 29.93 in 10.0 mi WNW 8.1 mph - N/A   Overcast
7:53 PM 41.0 °F 37.1 °F 35.1 °F 79% 29.95 in 10.0 mi WNW 5.8 mph - N/A   Overcast
9:53 PM 39.9 °F 37.8 °F 34.0 °F 79% 29.99 in 10.0 mi West 3.5 mph - N/A   Overcast
10:53 PM 39.0 °F - 35.1 °F 86% 29.99 in 10.0 mi Calm Calm - N/A   Overcast
11:53 PM 39.0 °F - 35.1 °F 86% 30.00 in 10.0 mi Calm Calm - N/A   Overcast